TimeEST,TemperatureF,Dew PointF,Humidity,Sea Level PressureIn,VisibilityMPH,Wind Direction,Wind SpeedMPH,Gust SpeedMPH,PrecipitationIn,Events,Conditions,WindDirDegrees,DateUTC
12:08 AM,44.6,35.6,71,29.68,10.0,Calm,Calm,-,N/A,,Overcast,0,2013-02-28 05:08:00
12:28 AM,44.6,35.6,71,29.68,10.0,Calm,Calm,-,N/A,,Overcast,0,2013-02-28 05:28:00
1:08 AM,44.6,35.6,71,29.67,10.0,Calm,Calm,-,N/A,,Overcast,0,2013-02-28 06:08:00
1:28 AM,44.6,35.6,71,29.67,10.0,West,3.5,-,N/A,,Overcast,270,2013-02-28 06:28:00
1:48 AM,44.6,33.8,66,29.67,10.0,West,4.6,-,N/A,,Overcast,280,2013-02-28 06:48:00
2:08 AM,42.8,35.6,76,29.67,10.0,Calm,Calm,-,N/A,,Overcast,0,2013-02-28 07:08:00
2:28 AM,42.8,35.6,76,29.66,10.0,Calm,Calm,-,N/A,,Overcast,0,2013-02-28 07:28:00
2:48 AM,44.6,35.6,71,29.65,10.0,SE,3.5,-,N/A,,Overcast,140,2013-02-28 07:48:00
3:08 AM,42.8,35.6,76,29.64,10.0,Calm,Calm,-,N/A,,Overcast,0,2013-02-28 08:08:00
3:28 AM,42.8,35.6,76,29.64,10.0,Calm,Calm,-,N/A,,Overcast,0,2013-02-28 08:28:00
3:48 AM,42.8,37.4,81,29.64,10.0,Calm,Calm,-,N/A,,Overcast,0,2013-02-28 08:48:00
4:08 AM,42.8,37.4,81,29.64,10.0,Calm,Calm,-,N/A,,Overcast,0,2013-02-28 09:08:00
4:28 AM,42.8,37.4,81,29.63,10.0,Calm,Calm,-,N/A,,Overcast,0,2013-02-28 09:28:00
4:48 AM,42.8,37.4,81,29.65,10.0,Calm,Calm,-,N/A,,Overcast,0,2013-02-28 09:48:00
5:08 AM,41.0,37.4,87,29.65,10.0,Calm,Calm,-,N/A,,Overcast,0,2013-02-28 10:08:00
5:28 AM,42.8,35.6,76,29.65,10.0,Calm,Calm,-,N/A,,Overcast,0,2013-02-28 10:28:00
5:48 AM,42.8,35.6,76,29.66,10.0,Calm,Calm,-,N/A,,Overcast,0,2013-02-28 10:48:00
7:08 AM,39.2,35.6,87,29.69,10.0,NW,4.6,-,N/A,,Overcast,310,2013-02-28 12:08:00
7:29 AM,37.4,33.8,87,29.70,3.0,NW,3.5,-,N/A,,Overcast,320,2013-02-28 12:29:00
7:49 AM,37.4,35.6,93,29.70,7.0,NNW,3.5,-,N/A,,Overcast,340,2013-02-28 12:49:00
8:09 AM,37.4,33.8,87,29.70,10.0,Calm,Calm,-,N/A,,Overcast,0,2013-02-28 13:09:00
8:29 AM,37.4,33.8,87,29.70,10.0,Calm,Calm,-,N/A,,Overcast,0,2013-02-28 13:29:00
9:09 AM,37.4,33.8,87,29.70,10.0,Calm,Calm,-,N/A,,Overcast,0,2013-02-28 14:09:00
9:29 AM,39.2,33.8,81,29.70,10.0,ENE,3.5,-,N/A,,Mostly Cloudy,70,2013-02-28 14:29:00
9:49 AM,39.2,33.8,81,29.70,10.0,Calm,Calm,-,N/A,,Mostly Cloudy,0,2013-02-28 14:49:00
10:09 AM,41.0,33.8,76,29.69,10.0,Calm,Calm,-,N/A,,Mostly Cloudy,0,2013-02-28 15:09:00
10:29 AM,41.0,33.8,76,29.69,10.0,Calm,Calm,-,N/A,,Scattered Clouds,0,2013-02-28 15:29:00
10:49 AM,42.8,32.0,66,29.69,10.0,Calm,Calm,-,N/A,,Scattered Clouds,0,2013-02-28 15:49:00
11:09 AM,42.8,33.8,70,29.68,10.0,Calm,Calm,-,N/A,,Mostly Cloudy,0,2013-02-28 16:09:00
11:29 AM,44.6,30.2,57,29.68,10.0,West,9.2,-,N/A,,Mostly Cloudy,260,2013-02-28 16:29:00
11:49 AM,44.6,26.6,49,29.68,10.0,West,10.4,19.6,N/A,,Overcast,260,2013-02-28 16:49:00
12:09 PM,44.6,30.2,57,29.68,10.0,SW,9.2,-,N/A,,Overcast,230,2013-02-28 17:09:00
12:29 PM,44.6,32.0,61,29.67,10.0,SW,9.2,-,N/A,,Overcast,220,2013-02-28 17:29:00
12:49 PM,46.4,30.2,53,29.66,10.0,WSW,10.4,17.3,N/A,,Mostly Cloudy,240,2013-02-28 17:49:00
1:09 PM,46.4,24.8,43,29.65,10.0,WNW,9.2,20.7,N/A,,Mostly Cloudy,290,2013-02-28 18:09:00
1:29 PM,46.4,24.8,43,29.65,10.0,West,15.0,19.6,N/A,,Scattered Clouds,260,2013-02-28 18:29:00
1:49 PM,48.2,23.0,37,29.64,10.0,West,13.8,20.7,N/A,,Scattered Clouds,270,2013-02-28 18:49:00
2:09 PM,46.4,23.0,40,29.64,10.0,West,11.5,-,N/A,,Mostly Cloudy,280,2013-02-28 19:09:00
2:29 PM,46.4,23.0,40,29.65,10.0,West,11.5,18.4,N/A,,Overcast,270,2013-02-28 19:29:00
3:09 PM,44.6,23.0,43,29.65,10.0,West,12.7,21.9,N/A,,Overcast,280,2013-02-28 20:09:00
4:10 PM,46.4,26.6,46,29.66,10.0,WNW,15.0,20.7,N/A,,Mostly Cloudy,290,2013-02-28 21:10:00
4:30 PM,44.6,28.4,53,29.67,10.0,WNW,8.1,16.1,N/A,,Mostly Cloudy,300,2013-02-28 21:30:00
4:50 PM,44.6,28.4,53,29.67,10.0,WNW,6.9,-,N/A,,Scattered Clouds,290,2013-02-28 21:50:00
5:10 PM,44.6,28.4,53,29.67,10.0,West,11.5,-,N/A,,Scattered Clouds,270,2013-02-28 22:10:00
5:30 PM,42.8,28.4,57,29.68,10.0,West,8.1,-,N/A,,Scattered Clouds,270,2013-02-28 22:30:00
5:50 PM,42.8,28.4,57,29.69,10.0,West,5.8,-,N/A,,Mostly Cloudy,280,2013-02-28 22:50:00
6:10 PM,42.8,28.4,57,29.70,10.0,West,6.9,-,N/A,,Mostly Cloudy,270,2013-02-28 23:10:00
6:30 PM,42.8,28.4,57,29.71,10.0,West,5.8,-,N/A,,Overcast,270,2013-02-28 23:30:00
6:50 PM,42.8,28.4,57,29.72,10.0,West,3.5,-,N/A,,Overcast,260,2013-02-28 23:50:00
7:30 PM,42.8,28.4,57,29.73,10.0,West,4.6,-,N/A,,Overcast,270,2013-03-01 00:30:00
7:50 PM,42.8,28.4,57,29.73,10.0,West,3.5,-,N/A,,Overcast,280,2013-03-01 00:50:00
8:10 PM,42.8,28.4,57,29.74,10.0,West,4.6,-,N/A,,Overcast,270,2013-03-01 01:10:00
8:30 PM,42.8,28.4,57,29.74,10.0,West,4.6,-,N/A,,Overcast,270,2013-03-01 01:30:00
8:50 PM,42.8,28.4,57,29.75,10.0,West,4.6,-,N/A,,Overcast,270,2013-03-01 01:50:00
9:10 PM,41.0,28.4,61,29.75,10.0,Calm,Calm,-,N/A,,Overcast,0,2013-03-01 02:10:00
9:30 PM,41.0,28.4,61,29.75,10.0,Calm,Calm,-,N/A,,Overcast,0,2013-03-01 02:30:00
9:50 PM,41.0,26.6,57,29.74,10.0,West,3.5,-,N/A,,Overcast,280,2013-03-01 02:50:00
10:10 PM,41.0,26.6,57,29.74,10.0,West,4.6,-,N/A,,Overcast,280,2013-03-01 03:10:00
10:30 PM,42.8,26.6,53,29.74,10.0,West,5.8,-,N/A,,Overcast,280,2013-03-01 03:30:00
10:50 PM,42.8,26.6,53,29.74,10.0,WNW,4.6,-,N/A,,Overcast,290,2013-03-01 03:50:00
11:10 PM,42.8,26.6,53,29.74,10.0,West,5.8,-,N/A,,Overcast,280,2013-03-01 04:10:00
11:30 PM,41.0,26.6,57,29.74,10.0,West,4.6,-,N/A,,Overcast,280,2013-03-01 04:30:00
11:50 PM,41.0,26.6,57,29.74,10.0,West,3.5,-,N/A,,Overcast,280,2013-03-01 04:50:00